TimeCST,TemperatureF,Dew PointF,Humidity,Sea Level PressureIn,VisibilityMPH,Wind Direction,Wind SpeedMPH,Gust SpeedMPH,PrecipitationIn,Events,Conditions,WindDirDegrees,DateUTC
12:53 AM,54.0,50.0,86,29.91,10.0,South,5.8,-,N/A,,Clear,180,2013-01-12 06:53:00
1:53 AM,54.0,50.0,86,29.92,10.0,South,6.9,-,N/A,,Clear,180,2013-01-12 07:53:00
2:53 AM,53.1,50.0,89,29.91,10.0,South,4.6,-,N/A,,Clear,170,2013-01-12 08:53:00
3:53 AM,48.9,46.9,93,29.91,7.0,SSE,4.6,-,N/A,,Clear,160,2013-01-12 09:53:00
4:15 AM,50.0,48.2,94,29.89,1.8,SSE,3.5,-,N/A,,Clear,160,2013-01-12 10:15:00
4:37 AM,48.2,46.4,93,29.90,0.5,Calm,Calm,-,N/A,Fog,Fog,0,2013-01-12 10:37:00
4:53 AM,48.0,46.0,93,29.90,0.5,Calm,Calm,-,N/A,Fog,Fog,0,2013-01-12 10:53:00
5:00 AM,48.2,46.4,93,29.90,0.5,SSE,3.5,-,N/A,Fog,Fog,150,2013-01-12 11:00:00
5:18 AM,51.8,50.0,94,29.90,0.2,SSW,4.6,-,N/A,Fog,Fog,210,2013-01-12 11:18:00
5:39 AM,53.6,53.6,100,29.91,0.5,Calm,Calm,-,N/A,Fog,Fog,0,2013-01-12 11:39:00
5:50 AM,53.6,53.6,100,29.91,0.2,Calm,Calm,-,N/A,Fog,Fog,0,2013-01-12 11:50:00
5:53 AM,53.1,52.0,96,29.91,0.2,Calm,Calm,-,N/A,Fog,Fog,0,2013-01-12 11:53:00
6:04 AM,51.8,51.8,100,29.91,0.5,Calm,Calm,-,N/A,Fog,Fog,0,2013-01-12 12:04:00
6:53 AM,51.1,48.9,92,29.92,1.5,Calm,Calm,-,N/A,,Overcast,0,2013-01-12 12:53:00
7:07 AM,51.8,48.2,88,29.93,3.0,Calm,Calm,-,N/A,,Overcast,0,2013-01-12 13:07:00
7:44 AM,51.8,51.8,100,29.93,4.0,Calm,Calm,-,N/A,,Overcast,0,2013-01-12 13:44:00
7:53 AM,53.1,50.0,89,29.93,3.0,Calm,Calm,-,N/A,,Overcast,0,2013-01-12 13:53:00
8:01 AM,53.6,51.8,94,29.93,2.5,Calm,Calm,-,N/A,,Overcast,0,2013-01-12 14:01:00
8:15 AM,53.6,51.8,94,29.93,0.8,North,3.5,-,N/A,,Mist,10,2013-01-12 14:15:00
8:25 AM,53.6,51.8,94,29.93,0.2,Calm,Calm,-,N/A,Fog,Fog,0,2013-01-12 14:25:00
8:53 AM,55.0,53.1,93,29.94,0.2,Calm,Calm,-,N/A,Fog,Fog,0,2013-01-12 14:53:00
9:50 AM,55.4,55.4,100,29.93,0.2,Calm,Calm,-,N/A,Fog,Fog,0,2013-01-12 15:50:00
9:53 AM,57.0,55.0,93,29.93,0.2,Calm,Calm,-,N/A,Fog,Fog,0,2013-01-12 15:53:00
10:20 AM,57.2,55.4,94,29.93,0.2,NNE,3.5,-,N/A,Fog,Fog,20,2013-01-12 16:20:00
10:34 AM,57.2,55.4,94,29.93,0.2,Calm,Calm,-,N/A,Fog,Fog,0,2013-01-12 16:34:00
10:42 AM,57.2,57.2,100,29.93,0.5,Calm,Calm,-,N/A,Fog,Fog,0,2013-01-12 16:42:00
10:53 AM,57.9,57.0,97,29.91,0.8,ENE,3.5,-,N/A,,Overcast,70,2013-01-12 16:53:00
11:04 AM,57.2,57.2,100,29.89,1.8,NNE,4.6,-,N/A,,Mostly Cloudy,20,2013-01-12 17:04:00
11:25 AM,57.2,57.2,100,29.89,0.5,NNE,3.5,-,N/A,Fog,Fog,30,2013-01-12 17:25:00
11:29 AM,57.2,57.2,100,29.87,0.5,North,5.8,-,0.00,Fog-Rain,Light Rain,10,2013-01-12 17:29:00
11:39 AM,57.2,57.2,100,29.85,0.2,North,8.1,-,0.00,Fog-Rain,Light Rain,360,2013-01-12 17:39:00
11:53 AM,59.0,57.0,93,29.86,3.0,ENE,5.8,-,0.01,Rain,Light Rain,60,2013-01-12 17:53:00
12:53 PM,60.1,57.9,93,29.83,4.0,ENE,3.5,-,0.02,Rain,Light Rain,60,2013-01-12 18:53:00
1:08 PM,59.0,57.2,94,29.82,1.8,NNE,4.6,-,0.00,Rain,Rain,30,2013-01-12 19:08:00
1:34 PM,60.8,57.2,88,29.79,2.5,NNE,9.2,-,0.04,Rain,Rain,30,2013-01-12 19:34:00
1:44 PM,60.8,57.2,88,29.79,1.2,North,8.1,-,0.09,Rain,Heavy Rain,10,2013-01-12 19:44:00
1:53 PM,59.0,57.9,96,29.82,1.5,NW,9.2,-,0.15,Rain,Rain,310,2013-01-12 19:53:00
2:05 PM,60.8,57.2,88,29.81,0.8,North,6.9,-,0.19,Rain,Rain,350,2013-01-12 20:05:00
2:10 PM,60.8,57.2,88,29.79,2.0,ENE,9.2,-,0.20,Rain,Light Rain,60,2013-01-12 20:10:00
2:13 PM,60.8,57.2,88,29.80,3.0,Variable,5.8,-,0.21,Rain,Light Rain,0,2013-01-12 20:13:00
2:30 PM,59.0,57.2,94,29.79,2.0,NE,6.9,-,0.26,Rain,Light Rain,40,2013-01-12 20:30:00
2:35 PM,59.0,57.2,94,29.79,3.0,ENE,6.9,-,0.26,Rain,Light Rain,70,2013-01-12 20:35:00
2:43 PM,59.0,57.2,94,29.79,2.5,ENE,5.8,-,0.27,Rain,Heavy Rain,70,2013-01-12 20:43:00
2:46 PM,59.0,57.2,94,29.79,1.8,ENE,5.8,-,0.32,Rain,Heavy Rain,70,2013-01-12 20:46:00
2:53 PM,59.0,57.9,96,29.81,2.5,NNE,3.5,-,0.34,Rain,Rain,30,2013-01-12 20:53:00
2:56 PM,59.0,57.2,94,29.80,3.0,NNE,3.5,-,0.00,Rain,Rain,20,2013-01-12 20:56:00
2:58 PM,59.0,57.2,94,29.80,2.5,NNE,3.5,-,0.01,Rain,Light Rain,30,2013-01-12 20:58:00
3:08 PM,59.0,57.2,94,29.80,1.8,NW,5.8,-,0.04,Rain,Heavy Rain,310,2013-01-12 21:08:00
3:20 PM,59.0,57.2,94,29.78,2.0,NE,9.2,-,0.10,Rain,Light Rain,40,2013-01-12 21:20:00
3:26 PM,59.0,57.2,94,29.77,3.0,NE,8.1,-,0.11,Rain,Light Rain,40,2013-01-12 21:26:00
3:39 PM,59.0,57.2,94,29.76,10.0,NE,8.1,-,0.11,,Overcast,50,2013-01-12 21:39:00
3:49 PM,59.0,57.2,94,29.76,7.0,NE,8.1,-,0.11,Rain,Light Rain,40,2013-01-12 21:49:00
3:53 PM,59.0,57.0,93,29.76,5.0,NNE,8.1,-,0.12,Rain,Rain,30,2013-01-12 21:53:00
4:00 PM,59.0,57.2,94,29.75,5.0,NNE,8.1,-,0.01,Rain-Thunderstorm,Light Thunderstorms and Rain,20,2013-01-12 22:00:00
4:10 PM,59.0,57.2,94,29.76,7.0,Calm,Calm,-,0.01,Rain-Thunderstorm,Light Thunderstorms and Rain,0,2013-01-12 22:10:00
4:22 PM,59.0,55.4,88,29.75,5.0,NNE,9.2,-,0.02,Rain,Light Rain,20,2013-01-12 22:22:00
4:29 PM,57.2,57.2,100,29.77,7.0,SW,6.9,-,0.02,Rain-Thunderstorm,Light Thunderstorms and Rain,220,2013-01-12 22:29:00
4:39 PM,59.0,55.4,88,29.74,3.0,North,15.0,19.6,0.07,Rain-Thunderstorm,Light Thunderstorms and Rain,10,2013-01-12 22:39:00
4:53 PM,59.0,57.0,93,29.74,7.0,North,9.2,-,0.09,Rain-Thunderstorm,Light Rain,360,2013-01-12 22:53:00
5:00 PM,59.0,55.4,88,29.73,8.0,NE,10.4,-,0.00,Rain,Light Rain,50,2013-01-12 23:00:00
5:18 PM,59.0,55.4,88,29.74,2.5,NNW,12.7,-,0.09,Rain,Heavy Rain,340,2013-01-12 23:18:00
5:24 PM,57.2,55.4,94,29.75,3.0,North,8.1,-,0.13,Rain,Rain,10,2013-01-12 23:24:00
5:53 PM,59.0,55.9,90,29.74,9.0,NE,12.7,-,0.23,Rain,Light Rain,50,2013-01-12 23:53:00
6:53 PM,57.9,55.9,93,29.71,10.0,NNE,11.5,-,0.08,,Overcast,30,2013-01-13 00:53:00
7:08 PM,57.2,55.4,94,29.69,10.0,NE,8.1,-,0.00,Rain,Light Rain,50,2013-01-13 01:08:00
7:30 PM,57.2,55.4,94,29.69,4.0,Variable,6.9,-,0.07,Rain-Thunderstorm,Heavy Rain,0,2013-01-13 01:30:00
7:34 PM,57.2,55.4,94,29.70,2.5,NW,10.4,16.1,0.08,Rain-Thunderstorm,Heavy Rain,310,2013-01-13 01:34:00
7:39 PM,60.8,57.2,88,29.69,3.0,SE,9.2,16.1,0.15,Rain-Thunderstorm,Heavy Rain,130,2013-01-13 01:39:00
7:53 PM,55.9,54.0,93,29.73,4.0,NW,19.6,34.5,0.21,Rain,Rain,310,2013-01-13 01:53:00
7:57 PM,53.6,51.8,94,29.72,4.0,NNW,27.6,43.7,0.00,Rain,Rain,340,2013-01-13 01:57:00
8:02 PM,53.6,50.0,88,29.70,2.5,Calm,Calm,-,0.03,Rain-Thunderstorm,Heavy Rain,0,2013-01-13 02:02:00
8:19 PM,53.6,51.8,94,29.71,1.8,NNW,10.4,-,0.22,Rain,Heavy Rain,340,2013-01-13 02:19:00
8:26 PM,53.6,51.8,94,29.72,2.0,NNW,8.1,-,0.31,Rain,Rain,340,2013-01-13 02:26:00
8:30 PM,53.6,51.8,94,29.72,3.0,NNW,9.2,-,0.34,Rain,Heavy Rain,340,2013-01-13 02:30:00
8:53 PM,53.1,50.0,89,29.71,5.0,NNW,13.8,-,0.51,Rain,Rain,340,2013-01-13 02:53:00
9:05 PM,51.8,48.2,88,29.74,3.0,North,10.4,-,0.08,Rain-Thunderstorm,Heavy Rain,360,2013-01-13 03:05:00
9:10 PM,51.8,48.2,88,29.74,1.8,North,10.4,-,0.15,Rain-Thunderstorm,Heavy Rain,350,2013-01-13 03:10:00
9:35 PM,50.0,48.2,94,29.74,3.0,North,11.5,-,0.62,Rain-Thunderstorm,Thunderstorms and Rain,10,2013-01-13 03:35:00
9:53 PM,48.9,46.9,93,29.76,4.0,North,9.2,-,0.70,Rain,Rain,360,2013-01-13 03:53:00
10:10 PM,48.2,44.6,87,29.74,4.0,North,20.7,-,0.04,Rain-Thunderstorm,Rain,360,2013-01-13 04:10:00
10:25 PM,46.4,44.6,93,29.77,5.0,North,19.6,-,0.08,Rain,Rain,350,2013-01-13 04:25:00
10:51 PM,46.4,42.8,87,29.78,4.0,North,17.3,-,0.16,Rain,Rain,350,2013-01-13 04:51:00
10:53 PM,46.0,42.1,86,29.79,4.0,North,15.0,-,0.17,Rain,Rain,350,2013-01-13 04:53:00
11:01 PM,46.4,42.8,87,29.81,7.0,NNW,12.7,-,0.01,Rain,Rain,340,2013-01-13 05:01:00
11:53 PM,41.0,37.9,89,29.80,4.0,North,20.7,24.2,0.18,Rain,Heavy Rain,350,2013-01-13 05:53:00